sat.trackr.live / text

‹ back to catalog

STARLINK-5750

NORAD 55594 · 2023-020AB

PAYLOAD ACTIVE UNKNOWN

§ Identity

Operator
Country
US
Launch date
2023-02-12
Launch site
AFETR
Launch vehicle
Mass (kg)
RCS (m²)

Purposes: comms

External: N2YO · Heavens-Above · Gunter

§ Orbital elements

Epoch: 2026-09-20T22:04:01.584192Z

Period
94.27 min
Inclination
43.0045°
Eccentricity
0.0001398
Mean motion
15.27579526 rev/d
Perigee alt
482.1 km
Apogee alt
484.0 km
Semi-major
6,861.2 km
B*
-3.4983e-6
RAAN
342.3935°
Arg perigee
270.2873°
Mean anomaly
89.7819°
Rev number
19,877

§ Raw data

STARLINK-57501 55594U 23020AB  26263.91946278 -.00000358  00000+0 -34983-5 0  99992 55594  43.0045 342.3935 0001398 270.2873  89.7819 15.27579526198778

JSON: /api/v1/satellites/55594 · /tle

For live sub-satellite position, see the globe view (requires WebGL).

§ Visibility from observer

Set your observer location to see the next 7 days of passes ≥ 10°. The values pass through the URL so the page stays shareable.

No JS? Fill the form by hand. The geolocation button needs JavaScript.